Weather History for KPYM - February, 2014

Change the Weather History Date:

Monday, February 10, 2014

  Actual Average Record
Temperature  
Mean Temperature 19 °F -  
Max Temperature 28 °F 38 °F 58 °F (1990)
Min Temperature 8 °F 14 °F -6 °F (1975)
Degree Days  
Heating Degree Days 46    
Moisture  
Dew Point 11 °F    
Average Humidity 65    
Maximum Humidity 88    
Minimum Humidity 43    
Precipitation  
Precipitation 0.01 in - - ()
Sea Level Pressure  
Sea Level Pressure 30.03 in    
Wind  
Wind Speed 8 mph (WNW)    
Max Wind Speed 18 mph    
Max Gust Speed 23 mph    
Visibility 9 miles    
Events Snow    
Averages and records for this station are not official NWS values.
T = Trace of Precipitation, MM = Missing Value Source: NWS Daily Summary

Daily Weather History Graph

Daily Weather History Graph

Search for Another Location

Airport or City:

Trip Planner

Search our weather history database for the weather conditions in past years. The results will help you decide how hot, cold, wet, or windy it might be!

Date:

Astronomy

Feb. 10, 2014 Rise Set
Actual Time 6:45 AM EST 5:09 PM EST
Civil Twilight 6:16 AM EST 5:38 PM EST
Nautical Twilight 5:43 AM EST 6:11 PM EST
Astronomical Twilight 5:11 AM EST 6:43 PM EST
Moon 1:34 PM EST (2/10) 3:37 AM EST (2/10)
Length of Visible Light 11h 22m
Length of Day
10h 24m
Waxing Gibbous, 84% of the Moon is Illuminated
Feb 10
Waxing Gibbous
Feb 14
Full
Feb 22
Last Quarter
Mar 1
New
Mar 8
First Quarter

Hourly Weather History & Observations

Time (EST) Temp. Windchill Dew Point Humidity Pressure Visibility Wind Dir Wind Speed Gust Speed Precip Events Conditions
12:34 AM 25.0 °F 18.1 °F 21.9 °F 88% 29.94 in 2.0 mi West 5.8 mph - 0.01 in Snow Light Snow
12:47 AM 24.8 °F 16.9 °F 21.2 °F 86% 29.94 in 3.0 mi WSW 6.9 mph - 0.01 in Snow Light Snow
12:52 AM 25.0 °F 18.1 °F 21.0 °F 85% 29.94 in 3.0 mi SW 5.8 mph - 0.01 in Snow Light Snow
1:52 AM 21.9 °F 13.4 °F 18.0 °F 85% 29.93 in 10.0 mi WSW 6.9 mph - 0.00 in   Overcast
2:52 AM 21.0 °F 13.4 °F 18.0 °F 88% 29.91 in 10.0 mi WSW 5.8 mph - N/A   Overcast
3:52 AM 21.0 °F 11.4 °F 17.1 °F 85% 29.91 in 10.0 mi WSW 8.1 mph - N/A   Clear
4:52 AM 19.9 °F 12.1 °F 16.0 °F 85% 29.91 in 10.0 mi WSW 5.8 mph - N/A   Clear
5:52 AM 19.9 °F 10.1 °F 15.1 °F 81% 29.93 in 10.0 mi WNW 8.1 mph - N/A   Clear
6:52 AM 18.0 °F 6.9 °F 12.9 °F 81% 29.95 in 10.0 mi WNW 9.2 mph - N/A   Clear
7:52 AM 19.0 °F 7.5 °F 12.9 °F 77% 29.98 in 10.0 mi WNW 10.4 mph - N/A   Clear
8:52 AM 21.0 °F 9.9 °F 14.0 °F 74% 29.99 in 10.0 mi WNW 10.4 mph - N/A   Clear
9:52 AM 24.1 °F 11.5 °F 12.0 °F 60% 30.02 in 10.0 mi NW 15.0 mph - N/A   Clear
10:52 AM 25.0 °F 11.3 °F 10.9 °F 55% 30.02 in 10.0 mi NW 18.4 mph 23.0 mph N/A   Clear
11:52 AM 27.0 °F 15.2 °F 10.0 °F 49% 30.01 in 10.0 mi NW 15.0 mph 19.6 mph N/A   Clear
12:52 PM 27.0 °F 16.1 °F 8.1 °F 45% 30.00 in 10.0 mi NW 12.7 mph 21.9 mph N/A   Clear
1:52 PM 28.0 °F 18.6 °F 8.1 °F 43% 30.01 in 10.0 mi WNW 10.4 mph - N/A   Clear
2:52 PM 27.0 °F 17.3 °F 7.0 °F 43% 30.03 in 10.0 mi NW 10.4 mph - N/A   Partly Cloudy
3:52 PM 27.0 °F 18.7 °F 7.0 °F 43% 30.05 in 10.0 mi NW 8.1 mph - N/A   Scattered Clouds
4:52 PM 25.0 °F 15.5 °F 6.1 °F 45% 30.09 in 10.0 mi WNW 9.2 mph - N/A   Clear
5:52 PM 24.1 °F 17.0 °F 6.1 °F 46% 30.12 in 10.0 mi NW 5.8 mph - N/A   Clear
6:52 PM 21.9 °F 14.5 °F 5.0 °F 48% 30.15 in 10.0 mi NW 5.8 mph - N/A   Partly Cloudy
7:52 PM 21.0 °F 12.4 °F 5.0 °F 50% 30.17 in 10.0 mi NW 6.9 mph - N/A   Clear
8:52 PM 19.0 °F 12.3 °F 3.9 °F 52% 30.18 in 10.0 mi NW 4.6 mph - N/A   Clear
9:52 PM 16.0 °F 10.4 °F 3.9 °F 59% 30.19 in 10.0 mi West 3.5 mph - N/A   Clear
10:52 PM 10.0 °F - 3.0 °F 73% 30.21 in 10.0 mi Calm Calm - N/A   Clear
11:52 PM 8.1 °F - 1.0 °F 73% 30.21 in 10.0 mi Calm Calm - N/A   Clear